Wind_Speed
30 30 28 29 31 31 32 33 35 33 35 37 34 35 41 42 46 49 51 55 59 62 68 74 79 85 87 89 90 81 80 75 71 75 75 72 68 66 62 53 46 42 41 43
32 35 32 33 32 33 34 35 36 36 36 38 38 38 41 42 46 50 54 61 67 72 78 84 89 91 95 95 83 87 75 78 78 78 79 77 71 66 60 57 51 48 40 41
32 33 35 35 34 35 36 36 36 37 36 37 36 39 42 45 51 54 58 64 71 78 83 90 82 57 50 55 54 54 64 80 88 85 83 81 75 70 69 62 55 50 43 43
34 33 35 36 37 36 38 35 37 36 36 35 35 39 43 46 51 56 62 67 75 74 71 54 41 44 45 46 56 59 60 64 95 87 83 84 81 78 66 65 58 52 46 46
33 35 37 39 38 36 37 35 35 34 34 34 36 37 44 47 52 58 62 70 66 60 52 42 47 53 47 48 51 57 63 69 83 88 83 82 78 74 69 66 55 51 51 46
34 35 36 40 41 39 35 34 34 33 33 35 34 37 43 49 55 58 63 66 52 41 40 50 55 40 43 54 50 50 52 60 77 83 80 77 75 73 72 54 57 54 48 46
35 35 36 38 39 37 33 32 33 34 33 34 34 37 42 48 55 62 60 55 40 37 46 50 38 36 48 44 42 40 42 50 70 73 75 71 70 66 68 66 64 64 47 50
36 37 38 37 36 34 32 30 31 32 33 33 34 36 41 47 53 46 41 44 33 38 39 43 33 37 38 31 29 20 23 48 55 65 66 61 63 62 62 67 62 50 45 48
37 38 39 39 36 33 31 31 31 30 31 33 35 37 41 43 47 39 35 31 30 36 35 35 26 27 27 16 7 12 24 42 51 58 54 54 53 55 56 58 53 53 51 59
38 39 40 38 35 33 32 31 30 29 30 33 35 36 37 38 41 39 35 29 26 30 30 40 29 17 18 8 9 15 31 38 48 52 50 47 46 47 48 54 58 52 52 58
40 41 39 38 34 35 32 29 28 28 28 33 33 35 36 36 38 33 29 21 24 34 35 41 17 6 11 5 12 19 27 36 42 43 42 43 46 44 43 47 53 56 57 59
40 43 41 39 37 35 31 28 27 26 31 30 32 34 33 28 29 28 21 24 25 33 34 32 27 13 5 5 11 16 21 32 38 38 37 38 42 45 44 45 46 54 55 60
41 43 41 40 38 34 28 28 25 25 28 30 32 31 35 23 21 28 22 22 27 33 27 28 25 14 13 14 18 21 25 27 32 34 36 40 42 45 46 52 50 53 54 59
42 42 44 39 37 32 26 25 25 26 28 30 32 33 31 23 17 22 25 24 24 28 23 24 23 18 21 22 23 26 25 29 32 36 38 39 43 44 45 48 50 56 57 58
40 40 39 37 36 26 24 24 24 25 28 29 31 33 30 23 19 21 23 24 22 24 22 20 25 22 8 29 31 27 29 36 39 40 40 40 42 42 43 48 52 46 48 51
40 39 37 33 30 24 24 23 25 26 27 28 30 31 27 24 20 21 24 23 22 21 26 15 20 24 13 9 21 18 29 37 43 41 44 40 29 36 42 49 58 52 44 52
37 37 34 32 26 24 24 23 25 26 27 28 29 27 26 22 23 22 22 23 23 16 21 12 18 17 16 4 22 25 26 29 18 9 17 31 33 18 35 43 52 55 47 61
37 36 33 28 25 26 23 24 24 26 27 29 28 26 26 24 23 20 20 22 26 16 19 20 21 18 23 13 7 12 27 25 24 21 17 20 29 21 15 11 21 31 31 41
35 32 30 26 22 24 24 24 26 28 29 30 28 27 28 25 26 21 21 21 23 23 16 18 19 13 17 14 14 7 12 21 17 14 16 18 18 12 9 9 12 14 16 17
31 32 27 22 23 24 24 25 27 29 31 28 29 30 30 29 27 26 25 22 21 27 24 20 17 11 12 13 8 9 6 14 14 15 13 11 11 12 13 13 13 15 18 20
30 27 21 23 22 24 25 26 28 30 30 29 31 31 29 29 30 26 29 28 26 21 22 22 22 21 12 9 10 9 8 8 16 15 16 15 16 17 15 16 17 17 18 19
26 24 20 22 23 26 26 29 30 31 32 34 34 30 29 29 30 29 26 28 28 24 22 22 20 20 18 16 13 12 10 10 12 16 12 12 12 13 17 22 18 17 17 17
22 19 21 22 24 26 29 31 32 34 36 35 33 29 29 29 28 29 29 30 26 24 24 24 22 22 24 23 23 17 15 14 12 15 17 14 15 15 15 16 19 21 22 22
19 21 21 24 23 28 30 32 36 38 38 36 34 33 33 34 32 28 30 29 28 24 23 22 23 23 23 25 24 22 22 19 16 15 16 21 19 16 15 17 20 22 24 26
20 21 21 23 26 30 33 35 37 37 37 36 37 38 38 38 36 31 31 30 27 27 24 21 18 19 23 25 27 24 23 25 22 20 18 18 20 23 22 21 22 24 24 24
18 18 21 24 29 32 35 36 35 35 36 36 35 35 34 30 28 28 29 31 28 28 24 24 19 15 18 24 26 25 24 26 25 23 22 23 22 22 23 23 24 26 26 27
Wind_Direction
281 281 282 282 280 282 282 282 284 285 287 286 287 290 287 289 291 292 291 288 286 284 285 286 285 282 277 277 274 268 262 256 247 247 244 241 243 247 252 255 250 244 241 239
281 280 281 281 282 280 279 279 280 282 283 285 286 286 290 294 293 294 293 292 293 295 297 296 293 289 286 281 274 270 255 246 241 236 238 238 237 240 243 244 251 240 249 239
284 283 277 278 277 276 276 278 280 282 285 288 292 294 290 299 303 301 301 302 304 304 303 297 296 289 282 274 259 251 251 230 228 231 228 231 228 232 230 240 247 241 252 235
280 279 278 276 276 275 276 279 281 286 289 294 297 298 299 298 300 304 306 306 308 308 300 293 296 292 297 286 279 263 253 243 226 225 221 224 228 230 228 234 240 249 243 234
282 277 274 275 273 272 275 276 280 284 288 293 294 297 302 300 301 303 308 311 311 307 297 289 302 302 293 294 284 265 255 242 228 223 216 218 222 227 232 230 225 242 236 231
280 276 276 278 276 271 271 277 280 284 288 291 297 302 310 305 306 311 312 312 316 301 288 299 304 308 297 298 288 268 259 240 220 220 213 213 218 223 230 226 235 238 232 226
275 273 272 270 267 269 269 275 284 288 290 297 304 308 310 314 314 313 315 315 320 310 315 313 316 307 308 304 291 277 256 228 209 211 208 209 216 221 227 229 229 237 228 229
270 272 272 267 266 266 270 276 279 284 292 300 306 313 316 317 316 309 317 315 314 319 319 327 320 318 325 311 289 263 221 191 192 202 203 206 213 221 224 224 233 218 226 235
270 273 270 265 264 266 269 272 278 285 290 295 304 314 316 318 313 306 310 299 303 323 327 328 298 344 335 345 298 220 184 180 179 194 197 204 213 221 222 229 230 225 231 229
269 268 266 262 263 264 267 274 282 286 296 302 309 312 317 313 310 307 310 281 302 332 330 334 310 335 341 21 88 156 165 172 184 189 194 201 210 219 219 223 230 221 236 233
266 268 261 261 263 266 268 274 281 289 296 303 311 313 318 312 312 316 320 292 288 329 338 327 315 345 350 60 116 136 157 177 187 195 199 205 208 214 218 220 225 229 232 234
264 264 259 258 258 260 265 273 280 289 297 307 311 316 321 305 313 327 306 296 308 328 338 331 341 298 264 148 148 159 179 186 195 200 205 208 213 218 220 222 224 224 227 231
263 263 257 255 262 262 264 270 280 287 297 308 313 315 312 307 311 320 312 309 308 316 338 338 350 320 206 191 192 193 193 200 206 211 214 215 219 223 224 226 227 228 228 229
262 259 256 255 260 258 263 271 280 290 300 308 313 316 315 300 291 307 309 307 315 310 340 345 352 354 191 202 207 199 209 211 211 215 219 224 228 225 227 228 231 226 230 230
265 261 253 252 253 253 261 271 280 291 301 308 310 313 319 307 271 290 308 295 309 315 334 352 357 0 342 193 206 210 219 222 222 226 228 226 236 236 233 224 227 220 227 230
264 257 248 246 251 251 261 272 281 293 301 306 310 311 317 306 284 293 308 292 292 299 323 345 356 359 354 154 190 238 234 235 232 238 238 230 225 242 232 231 230 220 232 234
255 248 242 243 246 254 262 273 282 294 302 305 306 311 311 298 292 289 295 287 278 293 319 353 5 354 352 319 202 217 220 228 205 158 204 202 218 208 221 230 233 226 234 240
244 238 238 240 245 254 270 277 288 297 301 301 309 314 309 294 283 277 274 294 273 271 296 297 324 346 7 15 312 188 189 174 193 181 217 193 214 201 209 212 202 192 205 207
238 234 233 237 246 261 271 280 289 295 298 303 309 311 308 296 280 267 269 276 278 264 272 292 304 325 344 5 1 310 241 190 177 181 183 195 208 183 193 202 227 236 239 232
237 232 232 239 248 260 274 282 290 293 299 303 307 307 304 296 282 279 276 273 280 259 264 270 278 294 316 333 349 350 280 253 187 187 191 193 194 204 199 201 207 212 222 220
232 228 234 244 255 266 275 283 288 294 299 303 302 301 294 285 280 272 274 276 276 264 267 258 261 271 276 279 306 316 317 279 246 217 218 225 229 232 225 217 219 222 224 226
229 228 239 252 262 271 279 285 290 296 300 301 300 295 288 281 274 267 266 264 262 263 268 266 262 250 254 243 247 259 278 284 246 218 207 221 226 230 233 229 232 235 234 232
227 238 246 257 269 277 283 288 294 297 299 297 293 286 278 276 277 265 261 261 255 257 267 270 269 261 250 240 243 243 256 264 266 240 220 225 230 235 238 236 237 237 238 239
232 242 254 265 278 283 289 294 295 300 300 295 290 285 277 274 273 269 258 260 255 256 264 273 272 262 253 242 245 242 246 248 243 243 236 233 234 235 241 239 237 236 233 234
239 251 265 278 283 288 294 297 298 296 294 291 288 284 279 275 270 263 255 255 259 261 256 266 273 263 251 244 242 252 251 248 239 236 237 232 231 234 235 237 239 240 238 236
254 268 280 286 293 296 297 295 294 292 289 287 283 278 275 272 267 257 252 250 261 263 251 250 258 263 255 247 245 250 255 255 247 240 238 235 231 229 228 231 233 235 238 239
Height
5740 5740 5739 5740 5739 5738 5738 5738 5737 5737 5736 5736 5736 5732 5722 5723 5719 5716 5715 5712 5708 5704 5698 5692 5689 5682 5681 5680 5681 5688 5689 5693 5698 5706 5713 5721 5729 5735 5741 5750 5754 5757 5761 5763
5732 5731 5731 5731 5731 5731 5730 5729 5728 5728 5727 5727 5726 5724 5714 5712 5709 5706 5702 5695 5689 5684 5678 5670 5658 5650 5647 5644 5645 5647 5655 5662 5667 5677 5691 5703 5715 5723 5731 5737 5743 5748 5753 5756
5723 5725 5724 5724 5724 5723 5721 5721 5720 5719 5719 5717 5716 5711 5707 5701 5694 5691 5686 5680 5672 5663 5651 5640 5631 5622 5617 5611 5613 5615 5617 5626 5634 5646 5663 5679 5693 5703 5714 5723 5732 5738 5744 5747
5716 5716 5715 5715 5715 5715 5713 5713 5711 5710 5709 5708 5707 5704 5697 5693 5686 5679 5673 5667 5655 5643 5632 5619 5612 5608 5600 5596 5592 5592 5592 5597 5604 5617 5635 5654 5672 5685 5698 5711 5722 5729 5733 5737
5710 5708 5707 5707 5706 5705 5706 5704 5703 5702 5700 5699 5698 5696 5685 5681 5677 5672 5664 5652 5640 5624 5614 5609 5602 5592 5586 5580 5573 5568 5568 5571 5579 5594 5614 5634 5655 5668 5666 5692 5708 5716 5722 5728
5701 5700 5699 5699 5699 5699 5698 5697 5696 5695 5693 5691 5689 5685 5678 5670 5664 5658 5652 5637 5625 5616 5609 5599 5587 5575 5568 5559 5548 5540 5537 5541 5554 5575 5600 5622 5643 5659 5666 5667 5695 5704 5712 5718
5691 5691 5690 5690 5690 5691 5691 5691 5689 5687 5686 5683 5679 5675 5667 5657 5649 5640 5634 5623 5615 5608 5601 5589 5575 5563 5552 5538 5526 5517 5513 5519 5537 5565 5593 5614 5634 5649 5661 5674 5684 5692 5701 5709
5682 5682 5682 5683 5683 5682 5682 5683 5683 5680 5678 5675 5671 5665 5655 5649 5638 5630 5622 5615 5610 5604 5593 5580 5567 5555 5542 5529 5515 5509 5506 5516 5537 5565 5592 5610 5627 5639 5652 5661 5671 5680 5690 5700
5672 5673 5674 5674 5674 5675 5675 5675 5675 5673 5671 5667 5663 5656 5648 5641 5631 5624 5618 5612 5606 5600 5588 5575 5562 5551 5541 5528 5518 5515 5519 5528 5546 5573 5592 5606 5619 5631 5645 5655 5664 5673 5682 5689
5663 5664 5665 5666 5666 5666 5666 5667 5666 5665 5662 5658 5655 5648 5643 5636 5628 5618 5612 5607 5602 5594 5583 5572 5561 5553 5545 5537 5530 5529 5534 5545 5560 5573 5588 5602 5614 5624 5634 5644 5655 5663 5672 5678
5653 5655 5657 5657 5658 5658 5659 5659 5659 5657 5655 5650 5647 5637 5633 5625 5618 5612 5606 5601 5597 5589 5579 5570 5560 5555 5550 5544 5542 5544 5549 5558 5569 5579 5590 5598 5609 5620 5628 5638 5647 5655 5662 5668
5644 5644 5646 5648 5649 5649 5650 5651 5650 5648 5645 5642 5637 5633 5624 5617 5610 5606 5601 5596 5591 5585 5577 5568 5559 5553 5555 5550 5551 5554 5559 5565 5572 5580 5589 5599 5607 5613 5620 5629 5637 5643 5648 5655
5635 5635 5637 5638 5642 5642 5643 5643 5642 5640 5637 5634 5630 5626 5616 5610 5605 5602 5599 5593 5588 5584 5578 5568 5558 5553 5552 5553 5555 5558 5563 5569 5575 5581 5586 5593 5601 5607 5615 5621 5626 5632 5637 5642
5625 5626 5628 5631 5632 5634 5636 5634 5633 5632 5630 5626 5621 5617 5611 5605 5602 5599 5596 5590 5586 5580 5576 5566 5559 5553 5547 5551 5554 5558 5563 5567 5572 5577 5583 5588 5594 5598 5603 5609 5614 5620 5626 5631
5617 5619 5620 5621 5623 5626 5626 5625 5625 5624 5622 5619 5615 5609 5604 5599 5597 5595 5593 5587 5583 5579 5575 5566 5559 5553 5550 5547 5551 5556 5558 5561 5565 5570 5575 5578 5584 5589 5592 5595 5603 5609 5616 5624
5608 5610 5611 5612 5615 5617 5617 5617 5617 5615 5614 5611 5606 5602 5598 5594 5592 5591 5587 5584 5580 5577 5572 5567 5560 5553 5548 5547 5546 5550 5552 5556 5560 5564 5566 5571 5579 5580 5581 5588 5589 5601 5607 5614
5599 5601 5602 5604 5607 5608 5610 5610 5609 5608 5605 5603 5600 5595 5591 5588 5586 5586 5583 5579 5576 5574 5571 5566 5561 5556 5552 5550 5550 5548 5550 5552 5556 5556 5555 5562 5570 5572 5578 5580 5583 5590 5597 5606
5590 5591 5593 5596 5599 5600 5602 5602 5601 5599 5597 5596 5593 5589 5586 5584 5580 5580 5578 5576 5572 5570 5569 5566 5563 5558 5554 5550 5549 5548 5548 5548 5550 5550 5557 5560 5567 5568 5569 5570 5576 5582 5591 5592
5581 5583 5587 5589 5592 5593 5595 5594 5593 5591 5590 5587 5584 5582 5580 5578 5574 5573 5572 5570 5568 5565 5564 5563 5560 5558 5556 5554 5552 5549 5548 5547 5548 5550 5553 5557 5561 5561 5564 5568 5572 5577 5580 5587
5574 5577 5580 5584 5585 5586 5588 5586 5585 5584 5582 5579 5577 5575 5573 5571 5569 5566 5564 5563 5563 5560 5559 5558 5557 5556 5555 5553 5551 5550 5547 5547 5545 5548 5552 5555 5558 5562 5565 5567 5570 5575 5579 5583
5568 5570 5573 5576 5578 5579 5580 5579 5578 5577 5577 5571 5569 5568 5565 5563 5561 5561 5559 5558 5556 5555 5553 5552 5552 5552 5553 5551 5549 5547 5547 5546 5546 5546 5550 5552 5555 5558 5561 5564 5567 5569 5573 5577
5562 5563 5567 5570 5571 5572 5572 5571 5571 5569 5565 5562 5560 5558 5556 5555 5552 5552 5552 5551 5550 5549 5547 5546 5546 5546 5546 5547 5546 5545 5542 5542 5544 5544 5547 5549 5552 5555 5558 5561 5562 5564 5567 5570
5555 5559 5562 5564 5565 5565 5564 5562 5560 5559 5555 5552 5549 5548 5547 5546 5544 5543 5544 5543 5542 5542 5541 5540 5539 5539 5540 5541 5542 5541 5540 5539 5539 5541 5543 5546 5548 5551 5553 5554 5557 5560 5563 5565
5549 5553 5555 5556 5558 5556 5554 5553 5551 5548 5544 5541 5539 5538 5537 5537 5535 5535 5535 5535 5534 5534 5535 5534 5533 5532 5533 5535 5537 5537 5538 5538 5538 5539 5539 5541 5544 5545 5548 5550 5553 5555 5557 5559
5546 5547 5550 5549 5548 5547 5546 5543 5540 5536 5533 5531 5529 5527 5525 5524 5524 5525 5526 5526 5526 5527 5527 5527 5527 5526 5527 5528 5530 5531 5531 5533 5533 5535 5536 5537 5539 5541 5543 5546 5548 5550 5552 5554
5541 5542 5542 5541 5540 5538 5537 5533 5530 5527 5524 5521 5518 5516 5514 5513 5514 5515 5516 5517 5518 5519 5519 5521 5522 5521 5521 5521 5522 5524 5526 5527 5528 5529 5531 5533 5535 5536 5538 5540 5542 5544 5546 5548